User: anonymous   Login
Location: Caltech
(34.1382°N, 118.1253°W)
Time: 17:55:06
(UTC-08:00)
Language:

Meteor 1-11 Rocket - Orbit

View from above orbital plane
View from above orbital plane
View from above satellite
View from above satellite

Ground track
Ground track

The orbit data is extracted from the following two-line orbital elements,

1 05918U 72022B   18054.52379024  .00000107  00000-0  57189-4 0  9998
2 05918  81.2344  82.7432 0058236 341.5730  18.3327 14.05834048353305
Epoch (UTC): 23 February 2018 12:34:15
Eccentricity: 0.0058236
inclination: 81.2344°
perigee height: 831 km
apogee height: 916 km
right ascension of ascending node: 82.7432°
argument of perigee: 341.5730°
revolutions per day: 14.05834048
mean anomaly at epoch: 18.3327°
orbit number at epoch: 35330

The dashed part of the orbit path shows where the satellite is in the earth's shadow,  

DLR